TEVEL2-4

Last updated on Mon Sep 15 2025 00:03:10 GMT+0000 (Coordinated Universal Time)

1 63213U 25052D 25257.14445447 .00009958 00000+0 42822-3 0 9994 2 63213 97.4169 149.8602 0004302 41.8088 318.3476 15.22835663 27935
UTC large
Height (km)
Speed (km/s)
/
Latitude / Longitude
Inclination (degrees)
Orbital Period (minutes)
Azimuth
Elevation
Range (km)
Doppler Factor

Next 0 passes for location: London (51.5072 / 0.1276)

Sorry there are no passes over London.